www.pogodaiklimat.ru

Погода и климат >> Архив погоды >> Пакистан >> Джелам


ПОГОДА в Джеламе

  • Прогноз погоды в Джеламе
  • Монитор погоды в Джеламе

АРХИВ ПОГОДЫ в Джеламе

Время (UTC), дата Ветер
(напр.,м/с)
 
Видим.   Явления Облачность Т
(С)
Тd
(С)
f
(%)
Тe
(С)
Тes
(С)
Комфортность P
(гПа)
Po
(гПа)
Тmin
(С)
Tmax
(С)
R
(мм)
R24
(мм)
S
(см)
15 9.09 штиль 0 4000 м дым ясно +33.0 +27.6 73 +52 +52 опасность
перегрева
996.9 1000.0
18 9.09 штиль 0 4000 м дым ясно +31.0 +27.6 82 +50 +50 опасность
перегрева
998.2 972.6
21 9.09 штиль 0 4000 м дым ясно +31.0 +27.6 82 +50 +50 опасность
перегрева
998.2 972.6
00 10.09 штиль 0 2000 м дымка ясно +29.5 +27.5 89 +48 +48 опасность
перегрева
999.3 973.5
03 10.09 штиль 0 2000 м дымка ясно +30.5 +27.1 82 +48 +54 опасность
перегрева
1000.2 974.4 +28.9
06 10.09 штиль 0 2000 м дым ясно +35.0 +27.6 66 +55 +76 опасность
перегрева
999.8 974.3
09 10.09 ЮЗ 1 4000 м дым 3/3 900 м
[Sc]
+37.0 +28.3 61 +58 +69 опасность
перегрева
997.3 971.9
12 10.09 ЮЗ 3 4000 м дым ясно +36.5 +29.2 66 +60 +62 опасность
перегрева
995.4 970.3 +38.0
15 10.09 штиль 0 4000 м дым ясно +32.5 +22.7 56 +42 +42 опасность
перегрева
996.4 970.8
18 10.09 штиль 0 4000 м дым ясно +31.0 +27.6 82 +50 +50 опасность
перегрева
997.9 972.3
21 10.09 штиль 0 4000 м дым ясно +29.5 +26.7 85 +46 +46 опасность
перегрева
997.4 971.6
00 11.09 штиль 0 4000 м дым ясно +29.5 +27.5 89 +48 +48 опасность
перегрева
1000.2 974.4
03 11.09 штиль 0 2000 м дымка ясно +30.5 +27.8 86 +50 +56 опасность
перегрева
1001.3 975.5 +29.1
06 11.09 СЗ 1 2000 м дым ясно +34.5 +27.7 68 +54 +72 опасность
перегрева
1001.4 975.9
09 11.09 Ю 1 4000 м дым 3/3 900 м
[Sc]
+38.0 +28.7 59 +60 +71 опасность
перегрева
998.9 1000.0
12 11.09 Ю 2 4000 м дым ясно +36.5 +29.2 66 +60 +62 опасность
перегрева
997.1 971.9 +38.5
15 11.09 штиль 0 4000 м дым ясно +33.0 +27.6 73 +52 +52 опасность
перегрева
998.5 1000.0
18 11.09 штиль 0 4000 м дым ясно +31.5 +27.4 79 +50 +50 опасность
перегрева
1000.5 974.8
21 11.09 Ю 1 4000 м дым ясно +30.5 +27.8 86 +50 +50 опасность
перегрева
1000.8 1000.0
00 12.09 штиль 0 4000 м дым ясно +30.0 +27.3 85 +48 +48 опасность
перегрева
1000.9 975.1
03 12.09 штиль 0 2000 м дымка ясно +31.0 +27.6 82 +50 +55 опасность
перегрева
1001.7 976.0 +29.1
06 12.09 Ю 1 4000 м дым ясно +36.0 +27.9 63 +56 +74 опасность
перегрева
1002.0 976.7
09 12.09 Ю 1 4000 м дым 1/1 900 м
[Sc]
+37.0 +29.0 64 +60 +74 опасность
перегрева
1000.3 1000.0
12 12.09 ЮЗ 2 4000 м дым 1/1 900 м
[Sc]
+36.5 +27.8 61 +56 +58 опасность
перегрева
998.8 973.6 +38.0
15 12.09 штиль 0 4000 м дым ясно +33.0 +27.6 73 +52 +52 опасность
перегрева
1000.1 1000.0
18 12.09 штиль 0 4000 м дым ясно +31.0 +26.9 79 +48 +48 опасность
перегрева
1001.4 975.7
21 12.09 штиль 0 4000 м дым 5/0
[Ac trans]
+30.5 +27.1 82 +48 +48 опасность
перегрева
1002.2 1000.0
00 13.09 В 1 4000 м дым ясно +29.5 +26.7 85 +46 +46 опасность
перегрева
1003.3 977.3
03 13.09 штиль 0 4000 м дым 9/3 1200 м
[Sc As op]
+29.0 +22.4 68 +38 +39 очень
душно
1004.4 978.4 +28.3
06 13.09 штиль 0 4000 м дым 5/3 1200 м
[Sc As op]
+34.0 +27.2 68 +53 +64 опасность
перегрева
1004.2 978.7
09 13.09 штиль 0 4000 м дым 8/3 1200 м
[Sc As op]
+35.5 +27.4 63 +54 +59 опасность
перегрева
1001.5 976.2
12 13.09 штиль 0 4000 м дым {гроза} 4/0
[As op]
+32.0 +24.2 63 +44 +45 опасность
перегрева
1001.4 975.8 +36.5
15 13.09 штиль 0 4000 м дым 5/0
[Ac trans]
+29.5 +24.5 75 +42 +42 опасность
перегрева
1001.7 1000.0
18 13.09 штиль 0 4000 м дым 6/3 1200 м
[Sc Ac trans]
+28.5 +24.2 78 +40 +40 очень
душно
1003.3 977.3
21 13.09 штиль 0 4000 м дым 4/0 1000 м
[Ac trans]
+28.0 +24.4 81 +39 +39 очень
душно
1004.1 1000.0
00 14.09 штиль 0 4000 м дым 4/0
[Ci fib]
+27.5 +24.7 85 +39 +39 очень
душно
1003.1 977.0
03 14.09 штиль 0 2000 м дымка 5/0
[Ci fib]
+28.5 +25.7 85 +42 +47 опасность
перегрева
1004.9 978.8 +26.9
06 14.09 штиль 0 2000 м дым 8/3 1200 м
[Sc Ac trans]
+32.5 +25.5 67 +47 +55 опасность
перегрева
1004.8 979.1
09 14.09 штиль 0 2000 м дым 9/5 1200 м
[Sc Ac As]
+34.5 +27.7 68 +54 +57 опасность
перегрева
1002.9 1000.0
12 14.09 штиль 0 4000 м дым 4/0
[Ac trans]
+34.5 +27.7 68 +54 +56 опасность
перегрева
1001.8 976.3 +35.3
15 14.09 штиль 0 4000 м дым 5/0
[As op]
+31.0 +27.6 82 +50 +50 опасность
перегрева
1002.4 976.5
18 14.09 штиль 0 4000 м дым 4/0
[As op]
+30.0 +26.5 82 +46 +46 опасность
перегрева
1004.2 978.3
21 14.09 штиль 0 4000 м дым 6/0
[As op]
+29.0 +26.2 85 +44 +44 опасность
перегрева
1003.4 977.4
00 15.09 штиль 0 4000 м дым 10/4 1200 м
[Sc As op]
+28.0 +25.9 88 +42 +42 опасность
перегрева
1003.9 977.8
03 15.09 штиль 0 2000 м дымка 6/0
[Ac trans]
+29.0 +26.9 88 +45 +49 опасность
перегрева
1005.0 979.0 +27.9
06 15.09 штиль 0 2000 м дым 4/0
[Ci fib]
+33.5 +26.6 67 +50 +69 опасность
перегрева
1005.1 979.5
09 15.09 ЮЗ 1 4000 м дым 9/5 1200 м
[Sc As op]
+35.5 +26.6 60 +52 +55 опасность
перегрева
1003.0 977.3
12 15.09 штиль 0 4000 м дым {дождь} 3/0
[Ac trans]
+34.0 +26.5 65 +51 +52 опасность
перегрева
1000.5 975.0 +36.2 0.0
15 15.09 штиль 0 4000 м дым 3/0
[Ci fib]
+30.5 +24.1 69 +42 +42 опасность
перегрева
1001.7 1000.0
18 15.09 штиль 0 4000 м дым ясно +28.5 +24.2 78 +40 +40 очень
душно
1002.7 976.7
21 15.09 штиль 0 4000 м дым ясно +28.0 +24.4 81 +39 +39 очень
душно
1002.2 1000.0
00 16.09 штиль 0 4000 м дым 3/0
[Ac trans]
+28.0 +25.2 85 +41 +41 опасность
перегрева
1001.8 975.8
03 16.09 ЮЗ 1 10 км в посл. час гроза {дождь} 4/4 1200 м
[Sc]
+22.5 +21.0 91 +29 +32 очень
душно
1004.2 977.7 +21.7 17
06 16.09 штиль 0 10 км в посл. час гроза {дождь} 8/4 1200 м
[Sc diur, vesp Ac lent]
+26.0 +23.8 88 +36 +41 очень
душно
1005.1 978.8 6
09 16.09 штиль 0 10 км ясно +30.5 +23.3 65 +41 +57 опасность
перегрева
1001.8 1000.0

 

Местоположение метеостанции Джелам (Пакистан): широта 32.93 долгота 73.72 высота над уровнем моря 234 м.

В архиве по умолчанию представлена погода в Джеламе за последнюю неделю. Архивные данные за месяц целиком и за предыдущие месяцы, начиная с января 2011 года, Вы можете получить, выбрав интересующий диапазон дат из раскрывающегося списка и нажав кнопку "Ввод!".


*Определитесь, кто Вы:
робот инопланетянин человек

Внимание! Время в таблицах - всемирное. Для получения местного времени необходимо прибавить поправку, которая равна 5 ч.

Смотрите также архив погоды в соседних городах и на ближайших метеорологических станциях:

Погода в Мангле (Пакистан) (18 км)
Погода в Сиалкот аэропорту (Пакистан) (53 км)
Погода в Гуджрате (Пакистан) (57 км)
Погода в Чаквале (Пакистан) (81 км)
Погода в Сиялкоте (Пакистан) (90 км)
Погода в Гуджранвале (Пакистан) (94 км)
Погода в Хафизабаде (Пакистан) (95 км)
Погода в Исламабаде (Пакистан) (96 км)
Погода в Равалакоте (Пакистан) (103 км)
Погода в Исламабад Сити (Пакистан) (105 км)

Пояснения к столбцам:

Ветер - указаны скорость ветра в м/с - средняя за 10 мин, порывы в срок и между сроками (в фигурных скобках) и направление, откуда дует ветер: С - северный, СВ - северо-восточный, В - восточный, ЮВ - юго-восточный, Ю - южный, ЮЗ - юго-западный, З - западный, СЗ - северо-западный.
Видимость - горизонтальная дальность видимости в метрах или километрах. При видимости от 1 до 10 км при отсутствии осадков обычно наблюдается дымка, при ухудшении видимости до 1 км и менее - туман. В сухую погоду видимость может ухудшаться дымом, пылью или мглою.
Явления - указаны атмосферные явления, наблюдавшиеся в срок или в последний час перед сроком; фигурными скобками обозначены явления, наблюдавшиеся между сроками (за 1-3 часа до срока); квадратными скобками обозначены град или гололедные отложения с указанием их диаметра в мм.
Облачность - указаны через наклонную черту общая и нижняя облачность в баллах и высота нижней границы облаков в метрах; квадратными скобками обозначены формы облаков: Ci - перистые, Cs - перисто-слоистые, Cc - перисто-кучевые, Ac - высококучевые, As - высокослоистые, Sc - слоисто-кучевые, Ns - слоисто-дождевые, Cu - кучевые, Cb - кучево-дождевые. Подробнее классификацию облаков см. в Атласе облаков (PDF).
T - Температура воздуха - температура, измеренная на высоте 2 м над землей.
Td - Температура точки росы - температура, при понижении до которой содержащийся в воздухе водяной пар достигнет насыщения.
f - Относительная влажность воздуха - влажноcть воздуха, измеренная на высоте 2 м над землей.
Te - Эффективная температура - температура, которую ощущает одетый по сезону человек в тени. Характеристика душности погоды. При расчете учитывается влияние влажности воздуха и скорости ветра на теплоощущения человека.
Tes - Эффективная температура на солнце - температура, которую ощущает человек, с поправкой на солнечный нагрев. Характеристика знойности погоды. Зависит от высоты солнца над горизонтом, облачности и скорости ветра. Ночью, в пасмурную погоду, а также при ветре 12 м/с и более поправка равна нулю.
P - Атмосферное давление - приведенное к уровню моря атмосферное давление.
Po - Атмосферное давление - измеренное на уровне метеостанции атмосферное давление.
Tmin - Минимальная температура - минимум температуры воздуха на высоте 2 м над землей.
Tmax - Максимальная температура - максимум температуры воздуха на высоте 2 м над землей.
R - Количество осадков - Количество выпавших осадков за период времени, мм. При наведении курсора мыши на число - период времени, за который выпало указанное количество осадков.
R24 - Количество осадков - Количество выпавших осадков за 24 часа, мм.
S - Снежный покров - Высота снежного покрова, см. При наведении курсора мыши на число - состояние снежного покрова и степень покрытия местности в баллах.